Time,TemperatureF,DewpointF,PressureIn,WindDirection,WindDirectionDegrees,WindSpeedMPH,WindSpeedGustMPH,Humidity,HourlyPrecipIn,Conditions,Clouds,dailyrainin,SoftwareType,DateUTC
2013-01-17 00:00:00,31.5,28.2,30.04,WSW,252,3.0,9.0,87,0.00,,OVC OVC///CB,0.00,WUHU216DAVISVP2,2013-01-17 05:00:00,
2013-01-17 00:01:00,31.5,28.2,30.04,SW,236,1.0,9.0,87,0.00,,OVC OVC///CB,0.00,WUHU216DAVISVP2,2013-01-17 05:01:00,
2013-01-17 00:03:00,31.5,27.9,30.04,WSW,255,3.0,9.0,86,0.00,,OVC OVC///CB,0.00,WUHU216DAVISVP2,2013-01-17 05:03:00,
2013-01-17 00:08:00,31.6,28.0,30.04,SW,225,5.0,7.0,86,0.00,,OVC OVC///CB,0.00,WUHU216DAVISVP2,2013-01-17 05:08:00,
2013-01-17 00:13:00,31.7,27.8,30.05,WSW,248,4.0,7.0,85,0.00,,OVC OVC///CB,0.00,WUHU216DAVISVP2,2013-01-17 05:13:00,
2013-01-17 00:18:00,31.7,27.8,30.05,West,262,4.0,7.0,85,0.00,,OVC OVC///CB,0.00,WUHU216DAVISVP2,2013-01-17 05:18:00,
2013-01-17 00:23:00,31.7,27.8,30.05,WSW,238,4.0,7.0,85,0.00,,OVC OVC///CB,0.00,WUHU216DAVISVP2,2013-01-17 05:23:00,
2013-01-17 00:28:00,31.8,27.6,30.05,WSW,250,3.0,8.0,84,0.00,,OVC OVC///CB,0.00,WUHU216DAVISVP2,2013-01-17 05:28:00,
2013-01-17 00:33:00,31.8,27.6,30.05,SW,224,3.0,8.0,84,0.00,,OVC OVC///CB,0.00,WUHU216DAVISVP2,2013-01-17 05:33:00,
2013-01-17 00:38:00,31.8,27.6,30.05,WSW,252,2.0,7.0,84,0.00,,OVC OVC///CB,0.00,WUHU216DAVISVP2,2013-01-17 05:38:00,
2013-01-17 00:43:00,31.9,27.4,30.06,WSW,242,3.0,7.0,83,0.00,,OVC OVC///CB,0.00,WUHU216DAVISVP2,2013-01-17 05:43:00,
2013-01-17 00:48:00,31.9,27.4,30.06,WSW,238,1.0,6.0,83,0.00,,OVC OVC///CB,0.00,WUHU216DAVISVP2,2013-01-17 05:48:00,
2013-01-17 00:53:00,31.9,27.4,30.06,West,273,2.0,6.0,83,0.00,,OVC OVC///CB,0.00,WUHU216DAVISVP2,2013-01-17 05:53:00,
2013-01-17 00:58:00,31.9,27.4,30.06,WSW,245,2.0,7.0,83,0.00,,OVC OVC///CB,0.00,WUHU216DAVISVP2,2013-01-17 05:58:00,
2013-01-17 01:03:00,32.0,27.2,30.06,SW,232,3.0,7.0,82,0.00,,OVC OVC///CB,0.00,WUHU216DAVISVP2,2013-01-17 06:03:00,
2013-01-17 01:08:00,32.0,27.2,30.07,WSW,241,1.0,7.0,82,0.00,,OVC OVC///CB,0.00,WUHU216DAVISVP2,2013-01-17 06:08:00,
2013-01-17 01:13:00,32.0,27.2,30.07,WSW,250,2.0,7.0,82,0.00,,OVC OVC///CB,0.00,WUHU216DAVISVP2,2013-01-17 06:13:00,
2013-01-17 01:18:00,32.0,27.2,30.07,West,266,1.0,7.0,82,0.00,,OVC OVC///CB,0.00,WUHU216DAVISVP2,2013-01-17 06:18:00,
2013-01-17 01:23:00,32.0,27.2,30.07,SW,236,0.0,7.0,82,0.00,,OVC OVC///CB,0.00,WUHU216DAVISVP2,2013-01-17 06:23:00,
2013-01-17 01:28:00,32.0,27.2,30.07,WSW,242,2.0,7.0,82,0.00,,OVC OVC///CB,0.00,WUHU216DAVISVP2,2013-01-17 06:28:00,
2013-01-17 01:33:00,31.9,27.1,30.07,WSW,242,2.0,7.0,82,0.00,,OVC OVC///CB,0.00,WUHU216DAVISVP2,2013-01-17 06:33:00,
2013-01-17 01:38:00,31.9,27.1,30.07,WSW,243,3.0,5.0,82,0.00,,OVC OVC///CB,0.00,WUHU216DAVISVP2,2013-01-17 06:38:00,
2013-01-17 01:43:00,31.9,27.1,30.07,SSW,205,1.0,5.0,82,0.00,,OVC OVC///CB,0.00,WUHU216DAVISVP2,2013-01-17 06:43:00,
2013-01-17 01:48:00,32.0,27.2,30.08,SW,218,2.0,6.0,82,0.00,,OVC OVC///CB,0.00,WUHU216DAVISVP2,2013-01-17 06:48:00,
2013-01-17 01:53:00,32.0,26.9,30.08,WSW,242,4.0,8.0,81,0.00,,OVC OVC///CB,0.00,WUHU216DAVISVP2,2013-01-17 06:53:00,
2013-01-17 01:58:00,32.0,26.9,30.07,SW,232,1.0,8.0,81,0.00,,OVC OVC///CB,0.00,WUHU216DAVISVP2,2013-01-17 06:58:00,
2013-01-17 02:03:00,32.0,26.9,30.07,West,260,1.0,8.0,81,0.00,,OVC OVC///CB,0.00,WUHU216DAVISVP2,2013-01-17 07:03:00,
2013-01-17 02:08:00,32.1,26.8,30.08,WSW,253,4.0,7.0,80,0.00,,OVC OVC///CB,0.00,WUHU216DAVISVP2,2013-01-17 07:08:00,
2013-01-17 02:13:00,32.2,26.6,30.08,WNW,283,0.0,6.0,79,0.00,,OVC OVC///CB,0.00,WUHU216DAVISVP2,2013-01-17 07:13:00,
2013-01-17 02:18:00,32.4,26.4,30.08,WNW,302,2.0,6.0,78,0.00,,OVC OVC///CB,0.00,WUHU216DAVISVP2,2013-01-17 07:18:00,
2013-01-17 02:23:00,32.6,26.3,30.08,WSW,252,1.0,7.0,77,0.00,,OVC OVC///CB,0.00,WUHU216DAVISVP2,2013-01-17 07:23:00,
2013-01-17 02:28:00,32.7,26.4,30.09,SW,232,2.0,8.0,77,0.00,,OVC OVC///CB,0.00,WUHU216DAVISVP2,2013-01-17 07:28:00,
2013-01-17 02:33:00,32.7,26.4,30.09,West,266,3.0,8.0,77,0.00,,OVC OVC///CB,0.00,WUHU216DAVISVP2,2013-01-17 07:33:00,
2013-01-17 02:38:00,32.7,26.4,30.08,WNW,290,7.0,11.0,77,0.00,,OVC OVC///CB,0.00,WUHU216DAVISVP2,2013-01-17 07:38:00,
2013-01-17 02:43:00,32.7,26.7,30.08,WNW,288,1.0,11.0,78,0.00,,OVC OVC///CB,0.00,WUHU216DAVISVP2,2013-01-17 07:43:00,
2013-01-17 02:48:00,32.7,26.7,30.09,WNW,301,1.0,11.0,78,0.00,,OVC OVC///CB,0.00,WUHU216DAVISVP2,2013-01-17 07:48:00,
2013-01-17 02:53:00,32.7,26.7,30.09,West,274,4.0,11.0,78,0.00,,OVC OVC///CB,0.00,WUHU216DAVISVP2,2013-01-17 07:53:00,
2013-01-17 02:58:00,32.6,26.9,30.09,SW,236,1.0,10.0,79,0.00,,OVC OVC///CB,0.00,WUHU216DAVISVP2,2013-01-17 07:58:00,
2013-01-17 03:03:00,32.6,26.9,30.10,West,273,2.0,10.0,79,0.00,,OVC OVC///CB,0.00,WUHU216DAVISVP2,2013-01-17 08:03:00,
2013-01-17 03:08:00,32.6,26.9,30.10,West,269,2.0,10.0,79,0.00,,OVC OVC///CB,0.00,WUHU216DAVISVP2,2013-01-17 08:08:00,
2013-01-17 03:13:00,32.5,26.8,30.10,West,274,6.0,10.0,79,0.00,,OVC OVC///CB,0.00,WUHU216DAVISVP2,2013-01-17 08:13:00,
2013-01-17 03:18:00,32.5,27.1,30.10,West,263,3.0,10.0,80,0.00,,OVC OVC///CB,0.00,WUHU216DAVISVP2,2013-01-17 08:18:00,
2013-01-17 03:23:00,32.5,27.1,30.10,West,274,2.0,9.0,80,0.00,,OVC OVC///CB,0.00,WUHU216DAVISVP2,2013-01-17 08:23:00,
2013-01-17 03:28:00,32.4,27.0,30.10,WNW,283,1.0,9.0,80,0.00,,OVC OVC///CB,0.00,WUHU216DAVISVP2,2013-01-17 08:28:00,
2013-01-17 03:33:00,32.4,27.0,30.10,WNW,301,6.0,8.0,80,0.00,,OVC OVC///CB,0.00,WUHU216DAVISVP2,2013-01-17 08:33:00,
2013-01-17 03:38:00,32.4,27.0,30.10,West,266,0.0,9.0,80,0.00,,OVC OVC///CB,0.00,WUHU216DAVISVP2,2013-01-17 08:38:00,
2013-01-17 03:43:00,32.4,27.3,30.10,WSW,238,2.0,9.0,81,0.00,,OVC OVC///CB,0.00,WUHU216DAVISVP2,2013-01-17 08:43:00,
2013-01-17 03:48:00,32.3,27.2,30.10,WSW,252,1.0,9.0,81,0.00,,OVC OVC///CB,0.00,WUHU216DAVISVP2,2013-01-17 08:48:00,
2013-01-17 03:53:00,32.3,27.2,30.10,WNW,284,4.0,8.0,81,0.00,,OVC OVC///CB,0.00,WUHU216DAVISVP2,2013-01-17 08:53:00,
2013-01-17 03:58:00,32.3,27.2,30.11,WSW,256,5.0,8.0,81,0.00,,OVC OVC///CB,0.00,WUHU216DAVISVP2,2013-01-17 08:58:00,
2013-01-17 04:03:00,32.3,27.2,30.10,West,276,4.0,8.0,81,0.00,,OVC OVC///CB,0.00,WUHU216DAVISVP2,2013-01-17 09:03:00,
2013-01-17 04:08:00,32.3,27.5,30.11,WSW,255,4.0,8.0,82,0.00,,OVC OVC///CB,0.00,WUHU216DAVISVP2,2013-01-17 09:08:00,
2013-01-17 04:13:00,32.3,27.5,30.11,SW,233,7.0,8.0,82,0.00,,OVC OVC///CB,0.00,WUHU216DAVISVP2,2013-01-17 09:13:00,
2013-01-17 04:18:00,32.3,27.5,30.11,WSW,249,2.0,9.0,82,0.00,,OVC OVC///CB,0.00,WUHU216DAVISVP2,2013-01-17 09:18:00,
2013-01-17 04:23:00,32.2,27.4,30.11,West,269,3.0,9.0,82,0.00,,OVC OVC///CB,0.00,WUHU216DAVISVP2,2013-01-17 09:23:00,
2013-01-17 04:28:00,32.2,27.4,30.11,WSW,250,2.0,9.0,82,0.00,,OVC OVC///CB,0.00,WUHU216DAVISVP2,2013-01-17 09:28:00,
2013-01-17 04:33:00,32.2,27.4,30.11,WSW,253,1.0,8.0,82,0.00,,OVC OVC///CB,0.00,WUHU216DAVISVP2,2013-01-17 09:33:00,
2013-01-17 04:38:00,32.2,27.7,30.11,West,259,3.0,8.0,83,0.00,,OVC OVC///CB,0.00,WUHU216DAVISVP2,2013-01-17 09:38:00,
2013-01-17 04:43:00,32.1,27.6,30.11,West,276,2.0,7.0,83,0.00,,OVC OVC///CB,0.00,WUHU216DAVISVP2,2013-01-17 09:43:00,
2013-01-17 04:48:00,32.1,27.6,30.11,WSW,258,4.0,8.0,83,0.00,,OVC OVC///CB,0.00,WUHU216DAVISVP2,2013-01-17 09:48:00,
2013-01-17 04:53:00,32.2,27.7,30.11,West,280,2.0,8.0,83,0.00,,OVC OVC///CB,0.00,WUHU216DAVISVP2,2013-01-17 09:53:00,
2013-01-17 04:58:00,32.1,27.6,30.11,WNW,302,3.0,7.0,83,0.00,,OVC OVC///CB,0.00,WUHU216DAVISVP2,2013-01-17 09:58:00,
2013-01-17 05:03:00,32.1,27.6,30.11,WSW,248,4.0,7.0,83,0.00,,OVC OVC///CB,0.00,WUHU216DAVISVP2,2013-01-17 10:03:00,
2013-01-17 05:08:00,32.1,27.6,30.11,West,269,1.0,7.0,83,0.00,,OVC OVC///CB,0.00,WUHU216DAVISVP2,2013-01-17 10:08:00,
2013-01-17 05:13:00,32.1,27.6,30.11,WSW,257,2.0,7.0,83,0.00,,OVC OVC///CB,0.00,WUHU216DAVISVP2,2013-01-17 10:13:00,
2013-01-17 05:18:00,32.1,27.6,30.11,WSW,239,4.0,7.0,83,0.00,,OVC OVC///CB,0.00,WUHU216DAVISVP2,2013-01-17 10:18:00,
2013-01-17 05:23:00,32.1,27.6,30.12,WSW,242,0.0,7.0,83,0.00,,OVC OVC///CB,0.00,WUHU216DAVISVP2,2013-01-17 10:23:00,
2013-01-17 05:28:00,32.1,27.9,30.11,SW,232,2.0,7.0,84,0.00,,OVC OVC///CB,0.00,WUHU216DAVISVP2,2013-01-17 10:28:00,
2013-01-17 05:33:00,32.1,27.9,30.12,West,269,1.0,7.0,84,0.00,,OVC OVC///CB,0.00,WUHU216DAVISVP2,2013-01-17 10:33:00,
2013-01-17 05:38:00,32.1,27.9,30.12,WSW,248,2.0,5.0,84,0.00,,OVC OVC///CB,0.00,WUHU216DAVISVP2,2013-01-17 10:38:00,
2013-01-17 05:43:00,32.0,27.8,30.12,SW,221,2.0,6.0,84,0.00,,OVC OVC///CB,0.00,WUHU216DAVISVP2,2013-01-17 10:43:00,
2013-01-17 05:48:00,32.0,27.8,30.12,WSW,246,1.0,6.0,84,0.00,,OVC OVC///CB,0.00,WUHU216DAVISVP2,2013-01-17 10:48:00,
2013-01-17 05:53:00,32.0,27.8,30.12,West,278,3.0,5.0,84,0.00,,OVC OVC///CB,0.00,WUHU216DAVISVP2,2013-01-17 10:53:00,
2013-01-17 05:58:00,32.0,28.1,30.12,WNW,293,2.0,5.0,85,0.00,,OVC OVC///CB,0.00,WUHU216DAVISVP2,2013-01-17 10:58:00,
2013-01-17 06:03:00,32.0,28.1,30.12,SW,231,0.0,5.0,85,0.00,,OVC OVC///CB,0.00,WUHU216DAVISVP2,2013-01-17 11:03:00,
2013-01-17 06:08:00,31.9,28.0,30.12,SW,229,1.0,5.0,85,0.00,,OVC OVC///CB,0.00,WUHU216DAVISVP2,2013-01-17 11:08:00,
2013-01-17 06:13:00,31.9,28.0,30.13,WSW,252,1.0,4.0,85,0.00,,OVC OVC///CB,0.00,WUHU216DAVISVP2,2013-01-17 11:13:00,
2013-01-17 06:18:00,31.9,28.0,30.13,SW,229,0.0,3.0,85,0.00,,OVC OVC///CB,0.00,WUHU216DAVISVP2,2013-01-17 11:18:00,
2013-01-17 06:23:00,31.9,28.0,30.13,WSW,242,0.0,4.0,85,0.00,,OVC OVC///CB,0.00,WUHU216DAVISVP2,2013-01-17 11:23:00,
2013-01-17 06:28:00,31.9,28.0,30.13,WSW,257,3.0,4.0,85,0.00,,OVC OVC///CB,0.00,WUHU216DAVISVP2,2013-01-17 11:28:00,
2013-01-17 06:33:00,31.9,28.0,30.13,WSW,255,1.0,4.0,85,0.00,,OVC OVC///CB,0.00,WUHU216DAVISVP2,2013-01-17 11:33:00,
2013-01-17 06:38:00,31.9,28.3,30.13,WSW,240,1.0,4.0,86,0.00,,OVC OVC///CB,0.00,WUHU216DAVISVP2,2013-01-17 11:38:00,
2013-01-17 06:43:00,31.9,28.3,30.13,SW,230,0.0,4.0,86,0.00,,OVC OVC///CB,0.00,WUHU216DAVISVP2,2013-01-17 11:43:00,
2013-01-17 06:48:00,31.9,28.3,30.13,SW,224,0.0,4.0,86,0.00,,OVC OVC///CB,0.00,WUHU216DAVISVP2,2013-01-17 11:48:00,
2013-01-17 06:53:00,31.9,28.3,30.14,West,276,1.0,4.0,86,0.00,,OVC OVC///CB,0.00,WUHU216DAVISVP2,2013-01-17 11:53:00,
2013-01-17 06:58:00,31.9,28.3,30.14,WSW,249,1.0,4.0,86,0.00,,OVC OVC///CB,0.00,WUHU216DAVISVP2,2013-01-17 11:58:00,
2013-01-17 07:03:00,31.9,28.3,30.14,WSW,249,3.0,5.0,86,0.00,,OVC OVC///CB,0.00,WUHU216DAVISVP2,2013-01-17 12:03:00,
2013-01-17 07:08:00,31.9,28.3,30.14,WNW,301,2.0,5.0,86,0.00,,OVC OVC///CB,0.00,WUHU216DAVISVP2,2013-01-17 12:08:00,
2013-01-17 07:13:00,32.0,28.4,30.15,WSW,255,0.0,5.0,86,0.00,,OVC OVC///CB,0.00,WUHU216DAVISVP2,2013-01-17 12:13:00,
2013-01-17 07:18:00,32.0,28.4,30.15,West,274,3.0,5.0,86,0.00,,OVC OVC///CB,0.00,WUHU216DAVISVP2,2013-01-17 12:18:00,
2013-01-17 07:23:00,32.0,28.4,30.15,NW,305,2.0,4.0,86,0.00,,OVC OVC///CB,0.00,WUHU216DAVISVP2,2013-01-17 12:23:00,
2013-01-17 07:28:00,32.1,28.7,30.15,NNW,342,1.0,5.0,87,0.00,,OVC OVC///CB,0.00,WUHU216DAVISVP2,2013-01-17 12:28:00,
2013-01-17 07:33:00,32.1,28.7,30.16,WNW,294,2.0,5.0,87,0.00,,OVC OVC///CB,0.00,WUHU216DAVISVP2,2013-01-17 12:33:00,
2013-01-17 07:38:00,32.1,28.7,30.16,WNW,285,1.0,7.0,87,0.00,,OVC OVC///CB,0.00,WUHU216DAVISVP2,2013-01-17 12:38:00,
2013-01-17 07:43:00,32.1,28.7,30.16,NW,314,1.0,7.0,87,0.00,,OVC OVC///CB,0.00,WUHU216DAVISVP2,2013-01-17 12:43:00,
2013-01-17 07:48:00,32.1,28.7,30.15,NNW,342,1.0,8.0,87,0.00,,OVC OVC///CB,0.00,WUHU216DAVISVP2,2013-01-17 12:48:00,
2013-01-17 07:53:00,32.1,28.7,30.15,North,4,2.0,8.0,87,0.00,,OVC OVC///CB,0.00,WUHU216DAVISVP2,2013-01-17 12:53:00,
2013-01-17 07:58:00,32.1,28.7,30.15,NNW,332,1.0,8.0,87,0.00,,OVC OVC///CB,0.00,WUHU216DAVISVP2,2013-01-17 12:58:00,
2013-01-17 08:03:00,32.1,28.7,30.15,West,271,2.0,8.0,87,0.00,,OVC OVC///CB,0.00,WUHU216DAVISVP2,2013-01-17 13:03:00,
2013-01-17 08:08:00,32.2,28.8,30.15,WNW,297,3.0,11.0,87,0.00,,OVC OVC///CB,0.00,WUHU216DAVISVP2,2013-01-17 13:08:00,
2013-01-17 08:13:00,32.2,28.8,30.15,WNW,297,3.0,11.0,87,0.00,,OVC OVC///CB,0.00,WUHU216DAVISVP2,2013-01-17 13:13:00,
2013-01-17 08:18:00,32.2,28.8,30.16,WNW,302,4.0,11.0,87,0.00,,OVC OVC///CB,0.00,WUHU216DAVISVP2,2013-01-17 13:18:00,
2013-01-17 08:23:00,32.2,28.8,30.16,West,263,2.0,11.0,87,0.00,,OVC OVC///CB,0.00,WUHU216DAVISVP2,2013-01-17 13:23:00,
2013-01-17 08:28:00,32.2,29.1,30.16,West,266,3.0,11.0,88,0.00,,OVC OVC///CB,0.00,WUHU216DAVISVP2,2013-01-17 13:28:00,
2013-01-17 08:33:00,32.2,29.1,30.17,WNW,285,2.0,6.0,88,0.00,,OVC OVC///CB,0.00,WUHU216DAVISVP2,2013-01-17 13:33:00,
2013-01-17 08:38:00,32.2,29.1,30.17,West,280,2.0,6.0,88,0.00,,OVC OVC///CB,0.00,WUHU216DAVISVP2,2013-01-17 13:38:00,
2013-01-17 08:43:00,32.3,29.2,30.18,WSW,255,2.0,5.0,88,0.00,,OVC OVC///CB,0.00,WUHU216DAVISVP2,2013-01-17 13:43:00,
2013-01-17 08:48:00,32.4,29.0,30.18,WNW,293,1.0,7.0,87,0.00,,OVC OVC///CB,0.00,WUHU216DAVISVP2,2013-01-17 13:48:00,
2013-01-17 08:53:00,32.4,29.0,30.19,WNW,299,3.0,7.0,87,0.00,,OVC OVC///CB,0.00,WUHU216DAVISVP2,2013-01-17 13:53:00,
2013-01-17 08:58:00,32.5,29.4,30.19,WSW,250,0.0,7.0,88,0.00,,OVC OVC///CB,0.00,WUHU216DAVISVP2,2013-01-17 13:58:00,
2013-01-17 09:03:00,32.6,29.2,30.20,West,266,0.0,7.0,87,0.00,,OVC OVC///CB,0.00,WUHU216DAVISVP2,2013-01-17 14:03:00,
2013-01-17 09:08:00,32.7,29.3,30.20,SW,236,1.0,7.0,87,0.00,,OVC OVC///CB,0.00,WUHU216DAVISVP2,2013-01-17 14:08:00,
2013-01-17 09:13:00,32.7,29.3,30.21,West,274,3.0,7.0,87,0.00,,OVC OVC///CB,0.00,WUHU216DAVISVP2,2013-01-17 14:13:00,
2013-01-17 09:18:00,32.8,29.4,30.21,WSW,246,2.0,5.0,87,0.00,,OVC OVC///CB,0.00,WUHU216DAVISVP2,2013-01-17 14:18:00,
2013-01-17 09:23:00,32.8,29.4,30.21,WSW,248,1.0,5.0,87,0.00,,OVC OVC///CB,0.00,WUHU216DAVISVP2,2013-01-17 14:23:00,
2013-01-17 09:28:00,32.9,29.5,30.21,West,273,1.0,5.0,87,0.00,,OVC OVC///CB,0.00,WUHU216DAVISVP2,2013-01-17 14:28:00,
2013-01-17 09:33:00,32.9,29.5,30.21,WSW,250,2.0,4.0,87,0.00,,OVC OVC///CB,0.00,WUHU216DAVISVP2,2013-01-17 14:33:00,
2013-01-17 09:38:00,33.0,29.6,30.21,WSW,249,3.0,5.0,87,0.00,,OVC OVC///CB,0.00,WUHU216DAVISVP2,2013-01-17 14:38:00,
2013-01-17 09:43:00,33.0,29.6,30.20,WSW,243,1.0,5.0,87,0.00,,OVC OVC///CB,0.00,WUHU216DAVISVP2,2013-01-17 14:43:00,
2013-01-17 09:48:00,33.1,29.7,30.21,West,281,0.0,5.0,87,0.00,,OVC OVC///CB,0.00,WUHU216DAVISVP2,2013-01-17 14:48:00,
2013-01-17 09:53:00,33.1,29.7,30.21,WSW,257,3.0,5.0,87,0.00,,OVC OVC///CB,0.00,WUHU216DAVISVP2,2013-01-17 14:53:00,
2013-01-17 09:58:00,33.2,29.8,30.21,WSW,242,1.0,5.0,87,0.00,,OVC OVC///CB,0.00,WUHU216DAVISVP2,2013-01-17 14:58:00,
2013-01-17 10:03:00,33.2,29.8,30.21,West,276,4.0,5.0,87,0.00,,OVC OVC///CB,0.00,WUHU216DAVISVP2,2013-01-17 15:03:00,
2013-01-17 10:08:00,33.2,29.8,30.21,WSW,238,1.0,5.0,87,0.00,,OVC OVC///CB,0.00,WUHU216DAVISVP2,2013-01-17 15:08:00,
2013-01-17 10:13:00,33.3,29.6,30.21,WSW,238,1.0,5.0,86,0.00,,OVC OVC///CB,0.00,WUHU216DAVISVP2,2013-01-17 15:13:00,
2013-01-17 10:18:00,33.3,29.6,30.21,WSW,243,2.0,5.0,86,0.00,,OVC OVC///CB,0.00,WUHU216DAVISVP2,2013-01-17 15:18:00,
2013-01-17 10:23:00,33.3,29.6,30.21,SW,231,2.0,5.0,86,0.00,,OVC OVC///CB,0.00,WUHU216DAVISVP2,2013-01-17 15:23:00,
2013-01-17 10:28:00,33.5,29.8,30.21,WSW,245,3.0,5.0,86,0.00,,OVC OVC///CB,0.00,WUHU216DAVISVP2,2013-01-17 15:28:00,
2013-01-17 10:33:00,33.5,29.8,30.21,WSW,241,3.0,5.0,86,0.00,,OVC OVC///CB,0.00,WUHU216DAVISVP2,2013-01-17 15:33:00,
2013-01-17 10:38:00,33.5,29.8,30.21,SW,235,1.0,5.0,86,0.00,,OVC OVC///CB,0.00,WUHU216DAVISVP2,2013-01-17 15:38:00,
2013-01-17 10:43:00,33.5,29.8,30.21,West,276,2.0,5.0,86,0.00,,OVC OVC///CB,0.00,WUHU216DAVISVP2,2013-01-17 15:43:00,
2013-01-17 10:48:00,33.7,30.0,30.20,WNW,288,2.0,5.0,86,0.00,,OVC OVC///CB,0.00,WUHU216DAVISVP2,2013-01-17 15:48:00,
2013-01-17 10:53:00,33.7,30.0,30.20,West,274,1.0,5.0,86,0.00,,OVC OVC///CB,0.00,WUHU216DAVISVP2,2013-01-17 15:53:00,
2013-01-17 10:58:00,33.7,29.8,30.20,WNW,290,4.0,5.0,85,0.00,,OVC OVC///CB,0.00,WUHU216DAVISVP2,2013-01-17 15:58:00,
2013-01-17 11:03:00,33.7,29.8,30.20,WNW,296,2.0,5.0,85,0.00,,OVC OVC///CB,0.00,WUHU216DAVISVP2,2013-01-17 16:03:00,
2013-01-17 11:08:00,33.7,29.8,30.20,NW,305,2.0,7.0,85,0.00,,OVC OVC///CB,0.00,WUHU216DAVISVP2,2013-01-17 16:08:00,
2013-01-17 11:13:00,33.8,30.1,30.19,NW,304,0.0,7.0,86,0.00,,OVC OVC///CB,0.00,WUHU216DAVISVP2,2013-01-17 16:13:00,
2013-01-17 11:18:00,33.9,30.2,30.19,West,281,2.0,7.0,86,0.00,,OVC OVC///CB,0.00,WUHU216DAVISVP2,2013-01-17 16:18:00,
2013-01-17 11:23:00,33.9,30.2,30.19,WSW,243,1.0,7.0,86,0.00,,OVC OVC///CB,0.00,WUHU216DAVISVP2,2013-01-17 16:23:00,
2013-01-17 11:28:00,33.9,30.0,30.19,WNW,288,3.0,5.0,85,0.00,,OVC OVC///CB,0.00,WUHU216DAVISVP2,2013-01-17 16:28:00,
2013-01-17 11:33:00,33.9,30.0,30.18,West,281,3.0,6.0,85,0.00,,OVC OVC///CB,0.00,WUHU216DAVISVP2,2013-01-17 16:33:00,
2013-01-17 11:38:00,33.9,30.0,30.18,West,270,1.0,6.0,85,0.00,,OVC OVC///CB,0.00,WUHU216DAVISVP2,2013-01-17 16:38:00,
2013-01-17 11:43:00,34.1,30.4,30.18,WNW,289,3.0,6.0,86,0.00,,OVC OVC///CB,0.00,WUHU216DAVISVP2,2013-01-17 16:43:00,
2013-01-17 11:48:00,34.3,30.3,30.17,WSW,243,0.0,6.0,85,0.00,,OVC OVC///CB,0.00,WUHU216DAVISVP2,2013-01-17 16:48:00,
2013-01-17 11:53:00,34.4,30.4,30.17,WNW,290,5.0,7.0,85,0.00,,OVC OVC///CB,0.00,WUHU216DAVISVP2,2013-01-17 16:53:00,
2013-01-17 11:58:00,34.2,30.3,30.17,West,273,2.0,8.0,85,0.00,,OVC OVC///CB,0.00,WUHU216DAVISVP2,2013-01-17 16:58:00,
2013-01-17 12:03:00,34.2,30.3,30.17,NW,305,2.0,8.0,85,0.00,,OVC OVC///CB,0.00,WUHU216DAVISVP2,2013-01-17 17:03:00,
2013-01-17 12:08:00,34.4,30.4,30.17,WNW,293,2.0,8.0,85,0.00,,OVC OVC///CB,0.00,WUHU216DAVISVP2,2013-01-17 17:08:00,
2013-01-17 12:13:00,34.3,30.3,30.16,West,276,1.0,6.0,85,0.00,,OVC OVC///CB,0.00,WUHU216DAVISVP2,2013-01-17 17:13:00,
2013-01-17 12:18:00,34.4,30.4,30.16,WNW,302,3.0,7.0,85,0.00,,OVC OVC///CB,0.00,WUHU216DAVISVP2,2013-01-17 17:18:00,
2013-01-17 12:23:00,34.4,30.2,30.16,North,350,4.0,7.0,84,0.00,,OVC OVC///CB,0.00,WUHU216DAVISVP2,2013-01-17 17:23:00,
2013-01-17 12:28:00,34.5,30.3,30.16,NW,309,4.0,8.0,84,0.00,,OVC OVC///CB,0.00,WUHU216DAVISVP2,2013-01-17 17:28:00,
2013-01-17 12:33:00,34.5,30.0,30.15,WNW,288,6.0,8.0,83,0.00,,OVC OVC///CB,0.00,WUHU216DAVISVP2,2013-01-17 17:33:00,
2013-01-17 12:38:00,34.4,29.9,30.15,WNW,288,5.0,8.0,83,0.00,,OVC OVC///CB,0.00,WUHU216DAVISVP2,2013-01-17 17:38:00,
2013-01-17 12:43:00,34.5,30.0,30.15,NNE,31,2.0,8.0,83,0.00,,OVC OVC///CB,0.00,WUHU216DAVISVP2,2013-01-17 17:43:00,
2013-01-17 12:48:00,34.5,30.0,30.14,WNW,294,2.0,8.0,83,0.00,,OVC OVC///CB,0.00,WUHU216DAVISVP2,2013-01-17 17:48:00,
2013-01-17 12:53:00,34.5,29.7,30.14,NNW,327,4.0,8.0,82,0.00,,OVC OVC///CB,0.00,WUHU216DAVISVP2,2013-01-17 17:53:00,
2013-01-17 12:58:00,34.5,29.7,30.14,NNW,337,1.0,8.0,82,0.00,,OVC OVC///CB,0.00,WUHU216DAVISVP2,2013-01-17 17:58:00,
2013-01-17 13:03:00,34.4,29.3,30.14,WNW,291,2.0,9.0,81,0.00,,OVC OVC///CB,0.00,WUHU216DAVISVP2,2013-01-17 18:03:00,
2013-01-17 13:08:00,34.3,29.5,30.14,WNW,293,2.0,9.0,82,0.00,,OVC OVC///CB,0.00,WUHU216DAVISVP2,2013-01-17 18:08:00,
2013-01-17 13:13:00,34.3,29.8,30.13,WNW,285,2.0,9.0,83,0.00,,OVC OVC///CB,0.00,WUHU216DAVISVP2,2013-01-17 18:13:00,
2013-01-17 13:18:00,34.3,29.5,30.14,NW,322,5.0,9.0,82,0.00,,OVC OVC///CB,0.00,WUHU216DAVISVP2,2013-01-17 18:18:00,
2013-01-17 13:23:00,34.2,29.4,30.13,WNW,284,2.0,8.0,82,0.00,,OVC OVC///CB,0.00,WUHU216DAVISVP2,2013-01-17 18:23:00,
2013-01-17 13:28:00,34.2,29.4,30.14,NNW,329,2.0,8.0,82,0.00,,OVC OVC///CB,0.00,WUHU216DAVISVP2,2013-01-17 18:28:00,
2013-01-17 13:33:00,34.3,29.5,30.13,NW,312,3.0,8.0,82,0.00,,OVC OVC///CB,0.00,WUHU216DAVISVP2,2013-01-17 18:33:00,
2013-01-17 13:38:00,34.3,29.2,30.13,NW,323,3.0,8.0,81,0.00,,OVC OVC///CB,0.00,WUHU216DAVISVP2,2013-01-17 18:38:00,
2013-01-17 13:43:00,34.3,29.5,30.13,NNW,340,0.0,8.0,82,0.00,,OVC OVC///CB,0.00,WUHU216DAVISVP2,2013-01-17 18:43:00,
2013-01-17 13:48:00,34.3,29.2,30.13,WNW,289,1.0,6.0,81,0.00,,OVC OVC///CB,0.00,WUHU216DAVISVP2,2013-01-17 18:48:00,
2013-01-17 13:53:00,34.4,29.6,30.13,WNW,288,3.0,6.0,82,0.00,,OVC OVC///CB,0.00,WUHU216DAVISVP2,2013-01-17 18:53:00,
2013-01-17 13:58:00,34.4,29.3,30.13,NW,304,3.0,6.0,81,0.00,,OVC OVC///CB,0.00,WUHU216DAVISVP2,2013-01-17 18:58:00,
2013-01-17 14:03:00,34.3,28.9,30.13,WNW,283,3.0,5.0,80,0.00,,OVC OVC///CB,0.00,WUHU216DAVISVP2,2013-01-17 19:03:00,
2013-01-17 14:08:00,34.2,28.8,30.12,WNW,284,3.0,5.0,80,0.00,,OVC OVC///CB,0.00,WUHU216DAVISVP2,2013-01-17 19:08:00,
2013-01-17 14:13:00,34.3,28.9,30.12,West,261,0.0,5.0,80,0.00,,OVC OVC///CB,0.00,WUHU216DAVISVP2,2013-01-17 19:13:00,
2013-01-17 14:18:00,34.3,28.6,30.12,WNW,293,3.0,5.0,79,0.00,,OVC OVC///CB,0.00,WUHU216DAVISVP2,2013-01-17 19:18:00,
2013-01-17 14:23:00,34.4,28.7,30.12,WNW,284,2.0,5.0,79,0.00,,OVC OVC///CB,0.00,WUHU216DAVISVP2,2013-01-17 19:23:00,
2013-01-17 14:28:00,34.4,28.7,30.13,NNW,334,0.0,5.0,79,0.00,,OVC OVC///CB,0.00,WUHU216DAVISVP2,2013-01-17 19:28:00,
2013-01-17 14:33:00,34.4,28.7,30.13,WSW,242,1.0,5.0,79,0.00,,OVC OVC///CB,0.00,WUHU216DAVISVP2,2013-01-17 19:33:00,
2013-01-17 14:38:00,34.5,29.1,30.13,WNW,290,1.0,5.0,80,0.00,,OVC OVC///CB,0.00,WUHU216DAVISVP2,2013-01-17 19:38:00,
2013-01-17 14:43:00,34.6,28.6,30.13,NW,314,2.0,4.0,78,0.00,,OVC OVC///CB,0.00,WUHU216DAVISVP2,2013-01-17 19:43:00,
2013-01-17 14:48:00,34.5,28.8,30.13,WNW,291,1.0,4.0,79,0.00,,OVC OVC///CB,0.00,WUHU216DAVISVP2,2013-01-17 19:48:00,
2013-01-17 14:53:00,34.5,28.8,30.13,WSW,256,2.0,4.0,79,0.00,,OVC OVC///CB,0.00,WUHU216DAVISVP2,2013-01-17 19:53:00,
2013-01-17 14:58:00,34.5,28.8,30.13,WNW,284,1.0,4.0,79,0.00,,OVC OVC///CB,0.00,WUHU216DAVISVP2,2013-01-17 19:58:00,
2013-01-17 15:03:00,34.5,28.8,30.13,NNW,342,3.0,4.0,79,0.00,,OVC OVC///CB,0.00,WUHU216DAVISVP2,2013-01-17 20:03:00,
2013-01-17 15:08:00,34.5,28.5,30.13,NNW,342,1.0,4.0,78,0.00,,OVC OVC///CB,0.00,WUHU216DAVISVP2,2013-01-17 20:08:00,
2013-01-17 15:13:00,34.5,28.5,30.13,West,276,0.0,4.0,78,0.00,,OVC OVC///CB,0.00,WUHU216DAVISVP2,2013-01-17 20:13:00,
2013-01-17 15:18:00,34.5,28.5,30.13,NNW,333,1.0,4.0,78,0.00,,OVC OVC///CB,0.00,WUHU216DAVISVP2,2013-01-17 20:18:00,
2013-01-17 15:23:00,34.4,28.4,30.13,NNW,346,1.0,3.0,78,0.00,,OVC OVC///CB,0.00,WUHU216DAVISVP2,2013-01-17 20:23:00,
2013-01-17 15:29:00,34.5,28.8,30.14,North,359,0.0,3.0,79,0.00,,OVC OVC///CB,0.00,WUHU216DAVISVP2,2013-01-17 20:29:00,
2013-01-17 15:34:00,34.6,28.9,30.14,SW,232,0.0,2.0,79,0.00,,OVC OVC///CB,0.00,WUHU216DAVISVP2,2013-01-17 20:34:00,
2013-01-17 15:39:00,34.5,28.5,30.14,WSW,252,0.0,2.0,78,0.00,,OVC OVC///CB,0.00,WUHU216DAVISVP2,2013-01-17 20:39:00,
2013-01-17 15:44:00,34.5,28.5,30.14,WSW,257,0.0,2.0,78,0.00,,OVC OVC///CB,0.00,WUHU216DAVISVP2,2013-01-17 20:44:00,
2013-01-17 15:49:00,34.5,28.5,30.14,SW,226,2.0,2.0,78,0.00,,OVC OVC///CB,0.00,WUHU216DAVISVP2,2013-01-17 20:49:00,
2013-01-17 15:54:00,34.6,28.6,30.14,West,262,1.0,4.0,78,0.00,,OVC OVC///CB,0.00,WUHU216DAVISVP2,2013-01-17 20:54:00,
2013-01-17 15:59:00,34.7,28.4,30.15,West,262,2.0,4.0,77,0.00,,OVC OVC///CB,0.00,WUHU216DAVISVP2,2013-01-17 20:59:00,
2013-01-17 16:04:00,34.7,28.4,30.15,West,266,2.0,3.0,77,0.00,,OVC OVC///CB,0.00,WUHU216DAVISVP2,2013-01-17 21:04:00,
2013-01-17 16:09:00,34.7,28.4,30.14,WSW,240,1.0,4.0,77,0.00,,OVC OVC///CB,0.00,WUHU216DAVISVP2,2013-01-17 21:09:00,
2013-01-17 16:14:00,34.7,28.4,30.15,WSW,248,1.0,4.0,77,0.00,,OVC OVC///CB,0.00,WUHU216DAVISVP2,2013-01-17 21:14:00,
2013-01-17 16:19:00,34.7,28.4,30.15,West,274,2.0,5.0,77,0.00,,OVC OVC///CB,0.00,WUHU216DAVISVP2,2013-01-17 21:19:00,
2013-01-17 16:24:00,34.8,28.5,30.14,West,271,1.0,5.0,77,0.00,,OVC OVC///CB,0.00,WUHU216DAVISVP2,2013-01-17 21:24:00,
2013-01-17 16:29:00,34.8,28.5,30.14,WNW,283,2.0,5.0,77,0.00,,OVC OVC///CB,0.00,WUHU216DAVISVP2,2013-01-17 21:29:00,
2013-01-17 16:34:00,34.8,28.5,30.14,West,278,1.0,5.0,77,0.00,,OVC OVC///CB,0.00,WUHU216DAVISVP2,2013-01-17 21:34:00,
2013-01-17 16:39:00,34.7,28.4,30.15,West,277,2.0,4.0,77,0.00,,OVC OVC///CB,0.00,WUHU216DAVISVP2,2013-01-17 21:39:00,
2013-01-17 16:44:00,34.5,28.2,30.15,WNW,298,3.0,6.0,77,0.00,,OVC OVC///CB,0.00,WUHU216DAVISVP2,2013-01-17 21:44:00,
2013-01-17 16:49:00,34.4,28.1,30.15,WNW,287,1.0,6.0,77,0.00,,OVC OVC///CB,0.00,WUHU216DAVISVP2,2013-01-17 21:49:00,
2013-01-17 16:54:00,34.4,28.1,30.15,WNW,291,1.0,5.0,77,0.00,,OVC OVC///CB,0.00,WUHU216DAVISVP2,2013-01-17 21:54:00,
2013-01-17 16:59:00,34.5,28.5,30.15,WSW,249,4.0,5.0,78,0.00,,OVC OVC///CB,0.00,WUHU216DAVISVP2,2013-01-17 21:59:00,
2013-01-17 17:04:00,34.3,28.3,30.14,WSW,248,2.0,6.0,78,0.00,,OVC OVC///CB,0.00,WUHU216DAVISVP2,2013-01-17 22:04:00,
2013-01-17 17:09:00,34.1,28.1,30.14,West,280,1.0,6.0,78,0.00,,OVC OVC///CB,0.00,WUHU216DAVISVP2,2013-01-17 22:09:00,
2013-01-17 17:14:00,34.0,28.0,30.14,WSW,245,1.0,5.0,78,0.00,,OVC OVC///CB,0.00,WUHU216DAVISVP2,2013-01-17 22:14:00,
2013-01-17 17:19:00,33.8,28.1,30.14,WNW,285,1.0,4.0,79,0.00,,OVC OVC///CB,0.00,WUHU216DAVISVP2,2013-01-17 22:19:00,
2013-01-17 17:24:00,33.6,27.9,30.15,WSW,252,0.0,3.0,79,0.00,,OVC OVC///CB,0.00,WUHU216DAVISVP2,2013-01-17 22:24:00,
2013-01-17 17:29:00,33.5,28.1,30.16,SW,228,1.0,3.0,80,0.00,,OVC OVC///CB,0.00,WUHU216DAVISVP2,2013-01-17 22:29:00,
2013-01-17 17:34:00,33.5,28.1,30.16,WSW,253,0.0,3.0,80,0.00,,OVC OVC///CB,0.00,WUHU216DAVISVP2,2013-01-17 22:34:00,
2013-01-17 17:39:00,33.6,28.2,30.18,WSW,249,2.0,3.0,80,0.00,,OVC OVC///CB,0.00,WUHU216DAVISVP2,2013-01-17 22:39:00,
2013-01-17 17:44:00,33.6,28.2,30.17,West,269,2.0,3.0,80,0.00,,OVC OVC///CB,0.00,WUHU216DAVISVP2,2013-01-17 22:44:00,
2013-01-17 17:49:00,33.6,28.2,30.18,WSW,238,2.0,3.0,80,0.00,,OVC OVC///CB,0.00,WUHU216DAVISVP2,2013-01-17 22:49:00,
2013-01-17 17:54:00,33.6,28.2,30.18,WSW,239,1.0,4.0,80,0.00,,OVC OVC///CB,0.00,WUHU216DAVISVP2,2013-01-17 22:54:00,
2013-01-17 17:59:00,33.6,28.2,30.18,SW,220,1.0,4.0,80,0.00,,OVC OVC///CB,0.00,WUHU216DAVISVP2,2013-01-17 22:59:00,
2013-01-17 18:04:00,33.6,28.2,30.19,SW,235,2.0,4.0,80,0.00,,OVC OVC///CB,0.00,WUHU216DAVISVP2,2013-01-17 23:04:00,
2013-01-17 18:09:00,33.6,28.2,30.19,WSW,256,4.0,4.0,80,0.00,,OVC OVC///CB,0.00,WUHU216DAVISVP2,2013-01-17 23:09:00,
2013-01-17 18:14:00,33.6,28.2,30.18,West,260,2.0,4.0,80,0.00,,OVC OVC///CB,0.00,WUHU216DAVISVP2,2013-01-17 23:14:00,
2013-01-17 18:19:00,33.6,28.2,30.20,SW,228,1.0,4.0,80,0.00,,OVC OVC///CB,0.00,WUHU216DAVISVP2,2013-01-17 23:19:00,
2013-01-17 18:24:00,33.6,28.2,30.19,SW,226,1.0,4.0,80,0.00,,OVC OVC///CB,0.00,WUHU216DAVISVP2,2013-01-17 23:24:00,
2013-01-17 18:29:00,33.6,28.2,30.20,WSW,240,1.0,4.0,80,0.00,,OVC OVC///CB,0.00,WUHU216DAVISVP2,2013-01-17 23:29:00,
2013-01-17 18:34:00,33.6,28.2,30.20,SW,225,1.0,4.0,80,0.00,,OVC OVC///CB,0.00,WUHU216DAVISVP2,2013-01-17 23:34:00,
2013-01-17 18:39:00,33.7,28.6,30.19,WSW,238,0.0,4.0,81,0.00,,OVC OVC///CB,0.00,WUHU216DAVISVP2,2013-01-17 23:39:00,
2013-01-17 18:44:00,33.6,28.5,30.20,SW,225,0.0,4.0,81,0.00,,OVC OVC///CB,0.00,WUHU216DAVISVP2,2013-01-17 23:44:00,
2013-01-17 18:49:00,33.6,28.5,30.20,SW,224,0.0,3.0,81,0.00,,OVC OVC///CB,0.00,WUHU216DAVISVP2,2013-01-17 23:49:00,
2013-01-17 18:54:00,33.6,28.5,30.20,WSW,242,1.0,3.0,81,0.00,,OVC OVC///CB,0.00,WUHU216DAVISVP2,2013-01-17 23:54:00,
2013-01-17 18:59:00,33.6,28.8,30.19,SW,235,0.0,3.0,82,0.00,,OVC OVC///CB,0.00,WUHU216DAVISVP2,2013-01-17 23:59:00,
2013-01-17 19:04:00,33.5,28.7,30.18,WSW,257,1.0,2.0,82,0.00,,OVC OVC///CB,0.00,WUHU216DAVISVP2,2013-01-18 00:04:00,
2013-01-17 19:09:00,33.4,28.6,30.18,WSW,245,0.0,3.0,82,0.00,,OVC OVC///CB,0.00,WUHU216DAVISVP2,2013-01-18 00:09:00,
2013-01-17 19:14:00,33.3,28.5,30.17,WSW,249,3.0,4.0,82,0.00,,OVC OVC///CB,0.00,WUHU216DAVISVP2,2013-01-18 00:14:00,
2013-01-17 19:19:00,33.3,28.5,30.18,SW,228,1.0,4.0,82,0.00,,OVC OVC///CB,0.00,WUHU216DAVISVP2,2013-01-18 00:19:00,
2013-01-17 19:24:00,33.3,28.5,30.17,WNW,283,1.0,4.0,82,0.00,,OVC OVC///CB,0.00,WUHU216DAVISVP2,2013-01-18 00:24:00,
2013-01-17 19:29:00,33.2,28.4,30.18,SW,233,2.0,3.0,82,0.00,,OVC OVC///CB,0.00,WUHU216DAVISVP2,2013-01-18 00:29:00,
2013-01-17 19:34:00,33.2,28.4,30.19,WSW,255,0.0,3.0,82,0.00,,OVC OVC///CB,0.00,WUHU216DAVISVP2,2013-01-18 00:34:00,
2013-01-17 19:39:00,33.2,28.7,30.20,SW,222,1.0,4.0,83,0.00,,OVC OVC///CB,0.00,WUHU216DAVISVP2,2013-01-18 00:39:00,
2013-01-17 19:44:00,33.3,28.8,30.21,WSW,243,3.0,4.0,83,0.00,,OVC OVC///CB,0.00,WUHU216DAVISVP2,2013-01-18 00:44:00,
2013-01-17 19:49:00,33.3,28.8,30.21,SW,232,2.0,4.0,83,0.00,,OVC OVC///CB,0.00,WUHU216DAVISVP2,2013-01-18 00:49:00,
2013-01-17 19:54:00,33.3,28.8,30.20,WSW,238,1.0,4.0,83,0.00,,OVC OVC///CB,0.00,WUHU216DAVISVP2,2013-01-18 00:54:00,
2013-01-17 19:59:00,33.2,28.7,30.20,SW,232,3.0,4.0,83,0.00,,OVC OVC///CB,0.00,WUHU216DAVISVP2,2013-01-18 00:59:00,
2013-01-17 20:04:00,33.2,28.7,30.20,WSW,240,2.0,4.0,83,0.00,,OVC OVC///CB,0.00,WUHU216DAVISVP2,2013-01-18 01:04:00,
2013-01-17 20:09:00,33.2,28.7,30.21,WSW,242,2.0,6.0,83,0.00,,OVC OVC///CB,0.00,WUHU216DAVISVP2,2013-01-18 01:09:00,
2013-01-17 20:14:00,33.2,29.0,30.20,West,262,2.0,6.0,84,0.00,,OVC OVC///CB,0.00,WUHU216DAVISVP2,2013-01-18 01:14:00,
2013-01-17 20:19:00,33.1,28.9,30.19,WSW,239,2.0,6.0,84,0.00,,OVC OVC///CB,0.00,WUHU216DAVISVP2,2013-01-18 01:19:00,
2013-01-17 20:24:00,33.0,28.8,30.19,SW,219,3.0,6.0,84,0.00,,OVC OVC///CB,0.00,WUHU216DAVISVP2,2013-01-18 01:24:00,
2013-01-17 20:29:00,33.0,29.1,30.19,WSW,245,3.0,8.0,85,0.00,,OVC OVC///CB,0.00,WUHU216DAVISVP2,2013-01-18 01:29:00,
2013-01-17 20:34:00,32.9,29.0,30.19,WSW,245,5.0,8.0,85,0.00,,OVC OVC///CB,0.00,WUHU216DAVISVP2,2013-01-18 01:34:00,
2013-01-17 20:39:00,32.9,29.0,30.19,WSW,248,3.0,8.0,85,0.00,,OVC OVC///CB,0.00,WUHU216DAVISVP2,2013-01-18 01:39:00,
2013-01-17 20:44:00,32.9,29.0,30.20,West,274,2.0,8.0,85,0.00,,OVC OVC///CB,0.00,WUHU216DAVISVP2,2013-01-18 01:44:00,
2013-01-17 20:49:00,32.9,29.3,30.19,West,281,3.0,6.0,86,0.00,,OVC OVC///CB,0.00,WUHU216DAVISVP2,2013-01-18 01:49:00,
2013-01-17 20:54:00,32.9,29.3,30.19,WSW,245,3.0,7.0,86,0.00,,OVC OVC///CB,0.00,WUHU216DAVISVP2,2013-01-18 01:54:00,
2013-01-17 20:59:00,32.9,29.3,30.19,West,264,5.0,7.0,86,0.00,,OVC OVC///CB,0.00,WUHU216DAVISVP2,2013-01-18 01:59:00,
2013-01-17 21:04:00,33.0,28.8,30.18,WNW,283,3.0,9.0,84,0.00,,OVC OVC///CB,0.00,WUHU216DAVISVP2,2013-01-18 02:04:00,
2013-01-17 21:09:00,33.1,28.9,30.19,WSW,256,4.0,9.0,84,0.00,,OVC OVC///CB,0.00,WUHU216DAVISVP2,2013-01-18 02:09:00,
2013-01-17 21:14:00,33.1,28.6,30.19,WNW,284,3.0,11.0,83,0.00,,OVC OVC///CB,0.00,WUHU216DAVISVP2,2013-01-18 02:14:00,
2013-01-17 21:19:00,33.1,28.6,30.20,NW,304,4.0,12.0,83,0.00,,OVC OVC///CB,0.00,WUHU216DAVISVP2,2013-01-18 02:19:00,
2013-01-17 21:24:00,32.9,28.1,30.20,WNW,293,5.0,12.0,82,0.00,,OVC OVC///CB,0.00,WUHU216DAVISVP2,2013-01-18 02:24:00,
2013-01-17 21:29:00,32.4,26.7,30.20,NW,316,6.0,14.0,79,0.00,,OVC OVC///CB,0.00,WUHU216DAVISVP2,2013-01-18 02:29:00,
2013-01-17 21:34:00,32.0,26.4,30.20,West,271,5.0,14.0,79,0.00,,OVC OVC///CB,0.00,WUHU216DAVISVP2,2013-01-18 02:34:00,
2013-01-17 21:39:00,31.6,25.7,30.21,WNW,286,3.0,15.0,78,0.00,,OVC OVC///CB,0.00,WUHU216DAVISVP2,2013-01-18 02:39:00,
2013-01-17 21:44:00,31.2,25.0,30.21,NW,314,4.0,15.0,77,0.00,,OVC OVC///CB,0.00,WUHU216DAVISVP2,2013-01-18 02:44:00,
2013-01-17 21:49:00,30.8,24.6,30.21,NW,304,5.0,15.0,77,0.00,,OVC OVC///CB,0.00,WUHU216DAVISVP2,2013-01-18 02:49:00,
2013-01-17 21:54:00,30.5,24.0,30.21,WNW,294,5.0,15.0,76,0.00,,OVC OVC///CB,0.00,WUHU216DAVISVP2,2013-01-18 02:54:00,
2013-01-17 21:59:00,30.2,23.4,30.22,WNW,291,7.0,15.0,75,0.00,,OVC OVC///CB,0.00,WUHU216DAVISVP2,2013-01-18 02:59:00,
2013-01-17 22:04:00,30.0,23.2,30.22,NW,307,10.0,15.0,75,0.00,,OVC OVC///CB,0.00,WUHU216DAVISVP2,2013-01-18 03:04:00,
2013-01-17 22:09:00,29.8,23.3,30.22,WNW,293,1.0,15.0,76,0.00,,OVC OVC///CB,0.00,WUHU216DAVISVP2,2013-01-18 03:09:00,
2013-01-17 22:14:00,29.7,23.2,30.22,WNW,290,3.0,14.0,76,0.00,,OVC OVC///CB,0.00,WUHU216DAVISVP2,2013-01-18 03:14:00,
2013-01-17 22:19:00,29.5,23.0,30.22,WNW,295,4.0,12.0,76,0.00,,OVC OVC///CB,0.00,WUHU216DAVISVP2,2013-01-18 03:19:00,
2013-01-17 22:24:00,29.3,22.8,30.22,WNW,295,6.0,12.0,76,0.00,,OVC OVC///CB,0.00,WUHU216DAVISVP2,2013-01-18 03:24:00,
2013-01-17 22:29:00,29.2,22.7,30.22,West,274,7.0,12.0,76,0.00,,OVC OVC///CB,0.00,WUHU216DAVISVP2,2013-01-18 03:29:00,
2013-01-17 22:34:00,29.1,22.3,30.22,NW,317,5.0,12.0,75,0.00,,OVC OVC///CB,0.00,WUHU216DAVISVP2,2013-01-18 03:34:00,
2013-01-17 22:39:00,28.9,22.4,30.23,WNW,300,1.0,12.0,76,0.00,,OVC OVC///CB,0.00,WUHU216DAVISVP2,2013-01-18 03:39:00,
2013-01-17 22:44:00,28.6,21.8,30.23,West,276,6.0,12.0,75,0.00,,OVC OVC///CB,0.00,WUHU216DAVISVP2,2013-01-18 03:44:00,
2013-01-17 22:49:00,28.4,21.6,30.23,WNW,298,7.0,15.0,75,0.00,,OVC OVC///CB,0.00,WUHU216DAVISVP2,2013-01-18 03:49:00,
2013-01-17 22:54:00,28.2,21.8,30.24,NNW,340,7.0,15.0,76,0.00,,OVC OVC///CB,0.00,WUHU216DAVISVP2,2013-01-18 03:54:00,
2013-01-17 22:59:00,28.1,21.7,30.24,NNW,329,13.0,16.0,76,0.00,,OVC OVC///CB,0.00,WUHU216DAVISVP2,2013-01-18 03:59:00,
2013-01-17 23:04:00,28.0,21.6,30.24,North,349,5.0,16.0,76,0.00,,OVC OVC///CB,0.00,WUHU216DAVISVP2,2013-01-18 04:04:00,
2013-01-17 23:09:00,27.9,21.2,30.24,NNW,332,11.0,18.0,75,0.00,,OVC OVC///CB,0.00,WUHU216DAVISVP2,2013-01-18 04:09:00,
2013-01-17 23:14:00,27.6,20.9,30.25,NNW,329,9.0,23.0,75,0.00,,OVC OVC///CB,0.00,WUHU216DAVISVP2,2013-01-18 04:14:00,
2013-01-17 23:19:00,27.4,20.4,30.25,WNW,294,5.0,23.0,74,0.00,,OVC OVC///CB,0.00,WUHU216DAVISVP2,2013-01-18 04:19:00,
2013-01-17 23:24:00,27.1,19.8,30.26,WNW,288,3.0,23.0,73,0.00,,OVC OVC///CB,0.00,WUHU216DAVISVP2,2013-01-18 04:24:00,
2013-01-17 23:29:00,27.0,19.7,30.26,NNW,338,9.0,23.0,73,0.00,,OVC OVC///CB,0.00,WUHU216DAVISVP2,2013-01-18 04:29:00,
2013-01-17 23:34:00,26.7,19.4,30.26,WNW,301,7.0,22.0,73,0.00,,OVC OVC///CB,0.00,WUHU216DAVISVP2,2013-01-18 04:34:00,
2013-01-17 23:39:00,26.4,19.1,30.26,North,3,6.0,22.0,73,0.00,,OVC OVC///CB,0.00,WUHU216DAVISVP2,2013-01-18 04:39:00,
2013-01-17 23:44:00,26.3,19.0,30.26,NNW,332,7.0,22.0,73,0.00,,OVC OVC///CB,0.00,WUHU216DAVISVP2,2013-01-18 04:44:00,
2013-01-17 23:49:00,26.1,18.8,30.27,WNW,300,10.0,20.0,73,0.00,,OVC OVC///CB,0.00,WUHU216DAVISVP2,2013-01-18 04:49:00,
2013-01-17 23:54:00,25.9,18.3,30.27,WNW,298,8.0,21.0,72,0.00,,OVC OVC///CB,0.00,WUHU216DAVISVP2,2013-01-18 04:54:00,
2013-01-17 23:59:00,25.7,18.1,30.27,West,280,11.0,21.0,72,0.00,,OVC OVC///CB,0.00,WUHU216DAVISVP2,2013-01-18 04:59:00,